Tracking 29892 objects as of 21-Nov-2024
HD Live streaming from Space Station
objects crossing your sky now

SL-3 R/B

Track SL-3 R/B now!
10-day predictions


NORAD ID: 7364
Int'l Code: 1974-052B
Perigee: 842.8 km
Apogee: 915.5 km
Inclination: 81.2 °
Period: 102.4 minutes
Semi major axis: 7250 km
RCS: 7.7932 m2 (large)
Launch date: July 9, 1974
Source: Commonwealth of Independent States (former USSR) (CIS)
Launch site: PLESETSK MISSILE AND SPACE COMPLEX (PKMTR)

Note: This is a ROCKET BODY
Your satellite tracking list
Your tracking list is empty




NASA's NSSDC Master Catalog

Two Line Element Set (TLE):
1 07364U 74052B   24325.60722110  .00000337  00000-0  19468-3 0  9997
2 07364  81.2343  40.4054 0050157  79.4760 281.2054 14.06322767582444
Source of the keplerian elements: AFSPC